Weather in Missoula

United States     46°52′17″N   113°59′35″W
temp.,
°C
wind,
m/s
gust,
m/s
humid.,
%
clouds,
%
prec.,
mm/h
press.,
hPa
HPBL,
m
25 may, wed
wed2500:00+5sse226399 0.0 101617
03:00+7ssw1261100 0.0 101537
06:00+5sse1289100 0.5 1017100
09:00+7s1289100 0.1 1016173
12:00+12sw1465100 0.2 1014924
15:00+16n255399 0.1 10131305
18:00+16nw385186 0.3 10111734
21:00+10nnw11805 0.0 101212
26 may, thu
thu2600:00+7wsw11927 0.0 101411
03:00+5sse009423 0.0 101510
06:00+5sse119510 0.0 101610
09:00+13ese016464 0.0 1014395
12:00+19se0238100 0.0 10111139
15:00+23ese152795 0.0 10072014
18:00+23nne222793 0.0 10041433
21:00+14ne1159100 0.0 100512
27 may, fri
fri2700:00+12nw1272100 0.0 100626
03:00+11nw118297 0.1 100723
06:00+10nw2499100 8.9 1009151
09:00+11w258193 1.8 1010927
12:00+15wsw3754100 1.9 10091658
15:00+18w4839100 0.0 10072336
18:00+15w4647100 0.0 10071380
21:00+10nw2377100 0.1 1008138
28 may, sat
sat2800:00+8sw118250 0.2 100714
03:00+8nnw118291 0.0 100626
06:00+7w1184100 0.1 100544
09:00+8sw1184100 0.6 1005285
12:00+10wsw1172100 0.9 1003935
15:00+12wsw2164100 0.3 10011104
18:00+13w225898 0.6 9981192
21:00+8wnw118395 0.3 99812
29 may, sun
sun2900:00+6wsw1190100 0.3 99918
03:00+7wsw1193100 1.0 99847
06:00+6wsw1297100 10.5 999539
09:00+3w1298100 13.8 1003313
12:00+2w1299100 24.0 1005285
15:00+4nw1296100 4.6 1006492
18:00+4nnw1297100 6.5 1008472
21:00+3nnw1299100 0.6 1010426